Location: Newark
(46.7636°N, 1.8358°W)
Time: 18:53:01
(UTC+00:00)

A-11 Canister half - All Passes

Search period start: 22 October 2019 00:00
Search period end: 01 November 2019 00:00
Orbit: 1527 x 1682 km, 47.3° (Epoch: 22 October)

Date Brightness Start Highest point End Pass type
(mag) Time Alt. Az. Time Alt. Az. Time Alt. Az.
22 Oct - 01:08:13 10° WNW 01:17:18 60° SSW 01:26:28 10° SE night (unlit)
22 Oct - 03:14:13 10° W 03:20:51 22° SW 03:27:35 10° S visible
22 Oct - 16:37:50 10° SE 16:38:34 10° ESE 16:39:20 10° ESE daylight
22 Oct - 18:32:55 10° SSW 18:41:30 40° SE 18:49:56 10° ENE visible
22 Oct - 20:36:19 10° WSW 20:45:46 80° SSE 20:55:05 10° ENE visible
22 Oct - 22:41:29 10° W 22:50:53 88° N 23:00:16 10° E visible
23 Oct - 00:46:35 10° WNW 00:55:42 62° SSW 01:04:53 10° SE night (unlit)
23 Oct - 02:52:27 10° W 02:59:19 24° SW 03:06:16 10° S visible
23 Oct - 18:11:26 10° SSW 18:19:56 38° SE 18:28:16 10° ENE visible
23 Oct - 20:14:42 10° WSW 20:24:08 79° SSE 20:33:28 10° ENE visible
23 Oct - 22:19:50 10° W 22:29:15 87° N 22:38:38 10° E visible
24 Oct - 00:24:57 10° WNW 00:34:06 64° SSW 00:43:19 10° SE night (unlit)
24 Oct - 02:30:44 10° W 02:37:47 25° SW 02:44:55 10° S night (unlit)
24 Oct - 17:49:57 10° SSW 17:58:22 37° SE 18:06:37 10° ENE visible
24 Oct - 19:53:05 10° WSW 20:02:32 77° SSE 20:11:50 10° ENE visible
24 Oct - 21:58:12 10° W 22:07:38 87° N 22:16:59 10° E visible
25 Oct - 00:03:20 10° WNW 00:12:30 66° SSW 00:21:44 10° SE visible
25 Oct - 02:09:00 10° W 02:16:14 26° SW 02:23:33 10° S night (unlit)
25 Oct - 17:28:29 10° SSW 17:36:48 35° SE 17:44:57 10° ENE visible
25 Oct - 19:31:27 10° WSW 19:40:55 76° SSE 19:50:13 10° ENE visible
25 Oct - 21:36:32 10° W 21:45:59 87° N 21:55:21 10° E visible
25 Oct - 23:41:42 10° WNW 23:50:55 67° SSW 00:00:09 10° SE visible
26 Oct - 01:47:17 10° W 01:54:42 28° SW 02:02:11 10° S night (unlit)
26 Oct - 17:07:02 10° SSW 17:15:15 34° SE 17:23:17 10° ENE daylight
26 Oct - 19:09:50 10° WSW 19:19:18 74° SSE 19:28:36 10° ENE visible
26 Oct - 21:14:54 10° W 21:24:22 87° N 21:33:43 10° E visible
26 Oct - 23:20:04 10° WNW 23:29:19 69° SSW 23:38:34 10° SE visible
27 Oct - 01:25:36 10° W 01:33:10 29° SW 01:40:47 10° S night (unlit)
27 Oct - 16:45:35 10° SSW 16:53:41 32° SE 17:01:37 10° ENE daylight
27 Oct - 18:48:13 10° WSW 18:57:42 72° SSE 19:06:58 10° ENE visible
27 Oct - 20:53:15 10° W 21:02:43 87° N 21:12:05 10° E visible
27 Oct - 22:58:26 10° WNW 23:07:43 71° SSW 23:16:58 10° ESE visible
28 Oct - 01:03:54 10° WNW 01:11:36 30° SW 01:19:23 10° SSE night (unlit)
28 Oct - 16:24:09 10° SSW 16:32:08 31° SE 16:39:56 10° ENE daylight
28 Oct - 18:26:36 10° WSW 18:36:05 71° SSE 18:45:21 10° ENE visible
28 Oct - 20:31:35 10° W 20:41:05 87° N 20:50:27 10° E visible
28 Oct - 22:36:48 10° WNW 22:46:06 73° SSW 22:55:23 10° ESE visible
29 Oct - 00:42:13 10° WNW 00:50:04 32° SW 00:57:57 10° SSE night (unlit)
29 Oct - 16:02:44 10° S 16:10:34 29° SE 16:18:15 10° E daylight
29 Oct - 18:04:59 10° SW 18:14:28 69° SSE 18:23:45 10° ENE visible
29 Oct - 20:09:56 10° W 20:19:27 87° N 20:28:50 10° E visible
29 Oct - 22:15:10 10° WNW 22:24:30 75° SSW 22:33:47 10° ESE visible
30 Oct - 00:20:32 10° WNW 00:28:31 34° SW 00:36:32 10° SSE night (unlit)
30 Oct - 15:41:19 10° S 15:49:02 28° SE 15:56:33 10° E daylight
30 Oct - 17:43:23 10° SW 17:52:52 67° SSE 18:02:07 10° ENE visible
30 Oct - 19:48:17 10° W 19:57:49 87° N 20:07:11 10° E visible
30 Oct - 21:53:32 10° WNW 22:02:54 76° SSW 22:12:11 10° ESE visible
30 Oct - 23:58:51 10° WNW 00:06:57 35° SW 00:15:05 10° SSE visible
31 Oct - 15:19:54 10° S 15:27:28 26° SE 15:34:51 10° E daylight
31 Oct - 17:21:46 10° SW 17:31:16 65° SSE 17:40:30 10° ENE visible
31 Oct - 19:26:37 10° W 19:36:11 87° N 19:45:34 10° E visible
31 Oct - 21:31:53 10° WNW 21:41:17 78° SSW 21:50:35 10° ESE visible
31 Oct - 23:37:11 10° WNW 23:45:24 37° SW 23:53:38 10° SSE visible
